Portada
METAR-TAF:

METAR-TAF

Aeropuertos :

Valencia, España

Base Aérea de Valencia-Bétera

latitud: 39-37-26N, longitud: 0-28-26W, altitud: 127 m

Observación

El informe se hizo hace 20 horas y 21 minutos, a las 15:00 UTC
Viento 11 kt del noroeste, variando entre oeste y norte
Temperatura 19°C
Humedad 34%
Presión 1011 hPa
Visibilidad 10 km o más

METAR: LEBT 201500Z AUTO 32011KT 280V010 9999 // ////// 19/03 Q1011

Hora: 12:21 (11:21 UTC)


TAF: falta

Observaciones y pronósticos meteorológicos de más de 4000 aeropuertos (mensajes METAR y TAF).

Los puntos amarillos y rojos representan las estaciones disponibles.

Ponga el ratón en el punto deseado para ver el nombre de la estación.

Haga clic para ver las observaciones y los pronósticos meteorológicos.

Para cambiar el mapa : haga clic en los botones verdes con una cruz de color negro para hacer un zoom, en el botón verde con un guión para alejar o en las flechas verdes para mapas adyacentes.


METAR-TAF: